Lanai City, HI

12:56 AM HST on June 23, 2017 (GMT -1000)
Lanai City

Weather History for PHNY - June, 2014

Change the Weather History Date:

Tuesday, June 3, 2014

  Actual Average Record
Temperature  
Mean Temperature 72 °F -  
Max Temperature 82 °F 81 °F 87 °F (1993)
Min Temperature 63 °F 63 °F 60 °F (1951)
Cooling Degree Days 8    
Growing Degree Days 22 (Base 50)    
Moisture  
Dew Point 65 °F    
Average Humidity 78    
Maximum Humidity 100    
Minimum Humidity 52    
Precipitation  
Precipitation 0.00 in - - ()
Sea Level Pressure  
Sea Level Pressure 29.99 in    
Wind  
Wind Speed 6 mph (NNE)    
Max Wind Speed 22 mph    
Max Gust Speed 25 mph    
Visibility 10 miles    
Events      
Averages and records for this station are not official NWS values.
T = Trace of Precipitation, MM = Missing Value Source: NWS Daily Summary

Daily Weather History Graph

Daily Weather History Graph

Search for Another Location

Airport or City:

Trip Planner

Search our weather history database for the weather conditions in past years. The results will help you decide how hot, cold, wet, or windy it might be!

Date:

Astronomy

Jun. 03, 2014 Rise Set
Actual Time 5:46 AM HST 7:06 PM HST
Civil Twilight 5:21 AM HST 7:30 PM HST
Nautical Twilight 4:52 AM HST 7:59 PM HST
Astronomical Twilight 4:22 AM HST 8:29 PM HST
Moon 10:52 AM HST (6/3) 11:42 PM HST (6/3)
Length of Visible Light 14h 08m
Length of Day
13h 19m
Waxing Crescent, 32% of the Moon is Illuminated
Jun 3
Waxing Crescent
Jun 5
First Quarter
Jun 12
Full
Jun 19
Last Quarter
Jun 26
New

Hourly Weather History & Observations

Time (HST) Temp. Heat Index Dew Point Humidity Pressure Visibility Wind Dir Wind Speed Gust Speed Precip Events Conditions
12:56 AM 65.8 °F - 64.9 °F 97% 29.95 in 10.0 mi East 4.6 mph - N/A   Clear
1:56 AM 64.9 °F - 64.9 °F 100% 29.93 in 10.0 mi East 4.6 mph - N/A   Clear
2:56 AM 65.8 °F - 64.9 °F 97% 29.92 in 10.0 mi East 5.8 mph - N/A   Clear
3:56 AM 65.8 °F - 64.9 °F 97% 29.93 in 10.0 mi NNE 4.6 mph - N/A   Clear
4:56 AM 63.0 °F - 63.0 °F 100% 29.95 in 10.0 mi NNE 3.5 mph - N/A   Clear
5:56 AM 65.8 °F - 65.8 °F 100% 29.96 in 10.0 mi North 6.9 mph - N/A   Clear
6:56 AM 70.0 °F - 66.9 °F 90% 29.98 in 10.0 mi Calm Calm - N/A   Clear
7:56 AM 73.9 °F - 65.8 °F 76% 29.98 in 10.0 mi Calm Calm - N/A   Clear
8:31 AM 75.2 °F - 64.4 °F 69% 30.05 in 10.0 mi SSW 3.5 mph - N/A   Mostly Cloudy
8:45 AM 75.2 °F - 64.4 °F 69% 30.05 in 10.0 mi Calm Calm - N/A   Scattered Clouds
8:56 AM 77.9 °F - 63.9 °F 62% 29.99 in 10.0 mi SW 3.5 mph - N/A   Scattered Clouds
9:56 AM 77.0 °F - 63.0 °F 62% 29.99 in 10.0 mi West 4.6 mph - N/A   Clear
10:56 AM 81.9 °F 83.2 °F 63.9 °F 54% 29.99 in 10.0 mi NW 5.8 mph - N/A   Partly Cloudy
11:56 AM 82.9 °F 84.2 °F 63.9 °F 52% 29.97 in 10.0 mi WNW 9.2 mph - N/A   Clear
12:56 PM 79.9 °F - 64.9 °F 60% 29.97 in 10.0 mi NW 6.9 mph - N/A   Overcast
1:39 PM 80.6 °F 82.3 °F 64.4 °F 58% 30.02 in 10.0 mi WNW 4.6 mph - N/A   Overcast
1:56 PM 78.8 °F - 64.4 °F 61% 30.02 in 10.0 mi West 6.9 mph - N/A   Overcast
2:56 PM 79.9 °F - 65.8 °F 62% 29.94 in 10.0 mi NW 6.9 mph - N/A   Mostly Cloudy
3:17 PM 80.6 °F 82.7 °F 66.2 °F 61% 29.99 in 10.0 mi NE 16.1 mph 21.9 mph N/A   Overcast
3:56 PM 79.9 °F - 66.9 °F 64% 29.92 in 10.0 mi NE 21.9 mph 25.3 mph N/A   Partly Cloudy
4:56 PM 77.0 °F - 65.8 °F 68% 29.93 in 7.0 mi NE 19.6 mph - N/A   Mostly Cloudy
5:55 PM 75.2 °F - 66.2 °F 73% 29.98 in 10.0 mi NE 17.3 mph - N/A   Scattered Clouds
5:56 PM 77.0 °F - 63.9 °F 64% 29.93 in 6.0 mi NE 17.3 mph 23.0 mph N/A   Haze
6:56 PM 72.9 °F - 64.9 °F 76% 29.95 in 10.0 mi ENE 13.8 mph - N/A   Clear
7:56 PM 71.6 °F - 66.2 °F 83% 30.03 in 4.0 mi ENE 9.2 mph - N/A   Haze
8:56 PM 70.0 °F - 65.8 °F 87% 29.99 in 10.0 mi ENE 5.8 mph - N/A   Partly Cloudy
9:29 PM 69.8 °F - 66.2 °F 88% 30.05 in 10.0 mi NE 6.9 mph - N/A   Mostly Cloudy
9:43 PM 69.8 °F - 66.2 °F 88% 30.05 in 10.0 mi NE 5.8 mph - N/A   Mostly Cloudy
9:56 PM 70.0 °F - 66.9 °F 90% 29.99 in 10.0 mi NE 4.6 mph - N/A   Partly Cloudy
10:40 PM 71.6 °F - 68.0 °F 88% 30.06 in 10.0 mi NNE 9.2 mph - N/A   Mostly Cloudy
10:56 PM 71.6 °F - 66.2 °F 83% 30.06 in 10.0 mi NNE 8.1 mph - N/A   Mostly Cloudy
11:06 PM 69.8 °F - 66.2 °F 88% 30.06 in 10.0 mi NNE 9.2 mph - N/A   Scattered Clouds
11:56 PM 68.0 °F - 66.9 °F 96% 29.99 in 10.0 mi ENE 6.9 mph - N/A   Partly Cloudy